Year,Month,Day,Hour,Minute,Value (Times are PST for windgust in km/hr)
2010,01,16,00,00,6.40
2010,01,16,00,01,6.40
2010,01,16,00,02,4.80
2010,01,16,00,03,4.80
2010,01,16,00,04,3.20
2010,01,16,00,05,3.20
2010,01,16,00,06,4.80
2010,01,16,00,07,4.80
2010,01,16,00,08,3.20
2010,01,16,00,09,0.00
2010,01,16,00,10,0.00
2010,01,16,00,11,3.20
2010,01,16,00,12,3.20
2010,01,16,00,13,3.20
2010,01,16,00,14,4.80
2010,01,16,00,15,4.80
2010,01,16,00,16,4.80
2010,01,16,00,17,4.80
2010,01,16,00,18,4.80
2010,01,16,00,19,3.20
2010,01,16,00,20,3.20
2010,01,16,00,21,3.20
2010,01,16,00,22,3.20
2010,01,16,00,23,3.20
2010,01,16,00,24,3.20
2010,01,16,00,25,3.20
2010,01,16,00,26,4.80
2010,01,16,00,27,4.80
2010,01,16,00,28,4.80
2010,01,16,00,29,3.20
2010,01,16,00,30,4.80
2010,01,16,00,31,3.20
2010,01,16,00,32,3.20
2010,01,16,00,33,3.20
2010,01,16,00,34,4.80
2010,01,16,00,35,3.20
2010,01,16,00,36,3.20
2010,01,16,00,37,4.80
2010,01,16,00,38,4.80
2010,01,16,00,39,4.80
2010,01,16,00,40,4.80
2010,01,16,00,41,4.80
2010,01,16,00,42,4.80
2010,01,16,00,43,4.80
2010,01,16,00,44,4.80
2010,01,16,00,45,4.80
2010,01,16,00,46,4.80
2010,01,16,00,47,6.40
2010,01,16,00,48,6.40
2010,01,16,00,49,4.80
2010,01,16,00,50,6.40
2010,01,16,00,51,6.40
2010,01,16,00,52,6.40
2010,01,16,00,53,4.80
2010,01,16,00,54,6.40
2010,01,16,00,55,4.80
2010,01,16,00,56,6.40
2010,01,16,00,57,4.80
2010,01,16,00,58,6.40
2010,01,16,00,59,4.80
2010,01,16,01,00,4.80
2010,01,16,01,01,6.40
2010,01,16,01,02,6.40
2010,01,16,01,03,6.40
2010,01,16,01,04,6.40
2010,01,16,01,05,6.40
2010,01,16,01,06,6.40
2010,01,16,01,07,6.40
2010,01,16,01,08,6.40
2010,01,16,01,09,4.80
2010,01,16,01,10,4.80
2010,01,16,01,11,4.80
2010,01,16,01,12,4.80
2010,01,16,01,13,6.40
2010,01,16,01,14,6.40
2010,01,16,01,15,4.80
2010,01,16,01,16,6.40
2010,01,16,01,17,4.80
2010,01,16,01,18,6.40
2010,01,16,01,19,6.40
2010,01,16,01,20,6.40
2010,01,16,01,21,8.10
2010,01,16,01,22,8.10
2010,01,16,01,23,8.10
2010,01,16,01,24,8.10
2010,01,16,01,25,8.10
2010,01,16,01,26,8.10
2010,01,16,01,27,8.10
2010,01,16,01,28,6.40
2010,01,16,01,29,6.40
2010,01,16,01,30,6.40
2010,01,16,01,31,6.40
2010,01,16,01,32,6.40
2010,01,16,01,33,8.10
2010,01,16,01,34,9.60
2010,01,16,01,35,9.60
2010,01,16,01,36,9.60
2010,01,16,01,37,9.60
2010,01,16,01,38,11.30
2010,01,16,01,39,11.30
2010,01,16,01,40,11.30
2010,01,16,01,41,9.60
2010,01,16,01,42,11.30
2010,01,16,01,43,11.30
2010,01,16,01,44,9.60
2010,01,16,01,45,9.60
2010,01,16,01,46,9.60
2010,01,16,01,47,9.60
2010,01,16,01,48,9.60
2010,01,16,01,49,11.30
2010,01,16,01,50,11.30
2010,01,16,01,51,14.50
2010,01,16,01,52,14.50
2010,01,16,01,53,14.50
2010,01,16,01,54,14.50
2010,01,16,01,55,14.50
2010,01,16,01,56,11.30
2010,01,16,01,57,12.90
2010,01,16,01,58,11.30
2010,01,16,01,59,9.60
2010,01,16,02,00,9.60
2010,01,16,02,01,11.30
2010,01,16,02,02,11.30
2010,01,16,02,03,11.30
2010,01,16,02,04,11.30
2010,01,16,02,05,11.30
2010,01,16,02,06,8.10
2010,01,16,02,07,11.30
2010,01,16,02,08,11.30
2010,01,16,02,09,9.60
2010,01,16,02,10,9.60
2010,01,16,02,11,9.60
2010,01,16,02,12,8.10
2010,01,16,02,13,6.40
2010,01,16,02,14,8.10
2010,01,16,02,15,6.40
2010,01,16,02,16,6.40
2010,01,16,02,17,6.40
2010,01,16,02,18,6.40
2010,01,16,02,19,6.40
2010,01,16,02,20,8.10
2010,01,16,02,21,8.10
2010,01,16,02,22,8.10
2010,01,16,02,23,8.10
2010,01,16,02,24,9.60
2010,01,16,02,25,9.60
2010,01,16,02,26,9.60
2010,01,16,02,27,9.60
2010,01,16,02,28,8.10
2010,01,16,02,29,9.60
2010,01,16,02,30,9.60
2010,01,16,02,31,9.60
2010,01,16,02,32,8.10
2010,01,16,02,33,8.10
2010,01,16,02,34,9.60
2010,01,16,02,35,8.10
2010,01,16,02,36,8.10
2010,01,16,02,37,6.40
2010,01,16,02,38,6.40
2010,01,16,02,39,6.40
2010,01,16,02,40,8.10
2010,01,16,02,41,9.60
2010,01,16,02,42,8.10
2010,01,16,02,43,8.10
2010,01,16,02,44,8.10
2010,01,16,02,45,8.10
2010,01,16,02,46,8.10
2010,01,16,02,47,6.40
2010,01,16,02,48,6.40
2010,01,16,02,49,6.40
2010,01,16,02,50,6.40
2010,01,16,02,51,8.10
2010,01,16,02,52,9.60
2010,01,16,02,53,9.60
2010,01,16,02,54,9.60
2010,01,16,02,55,8.10
2010,01,16,02,56,9.60
2010,01,16,02,57,8.10
2010,01,16,02,58,8.10
2010,01,16,02,59,8.10
2010,01,16,03,00,8.10
2010,01,16,03,01,8.10
2010,01,16,03,02,8.10
2010,01,16,03,03,8.10
2010,01,16,03,04,8.10
2010,01,16,03,05,8.10
2010,01,16,03,06,8.10
2010,01,16,03,07,8.10
2010,01,16,03,08,8.10
2010,01,16,03,09,6.40
2010,01,16,03,10,6.40
2010,01,16,03,11,6.40
2010,01,16,03,12,6.40
2010,01,16,03,13,6.40
2010,01,16,03,14,4.80
2010,01,16,03,15,6.40
2010,01,16,03,16,6.40
2010,01,16,03,17,6.40
2010,01,16,03,18,6.40
2010,01,16,03,19,6.40
2010,01,16,03,20,6.40
2010,01,16,03,21,6.40
2010,01,16,03,22,4.80
2010,01,16,03,23,4.80
2010,01,16,03,24,4.80
2010,01,16,03,25,4.80
2010,01,16,03,26,4.80
2010,01,16,03,27,4.80
2010,01,16,03,28,6.40
2010,01,16,03,29,6.40
2010,01,16,03,30,6.40
2010,01,16,03,31,8.10
2010,01,16,03,32,8.10
2010,01,16,03,33,8.10
2010,01,16,03,34,9.60
2010,01,16,03,35,9.60
2010,01,16,03,36,6.40
2010,01,16,03,37,6.40
2010,01,16,03,38,6.40
2010,01,16,03,39,6.40
2010,01,16,03,40,6.40
2010,01,16,03,41,6.40
2010,01,16,03,42,8.10
2010,01,16,03,43,6.40
2010,01,16,03,44,6.40
2010,01,16,03,45,6.40
2010,01,16,03,46,4.80
2010,01,16,03,47,4.80
2010,01,16,03,48,4.80
2010,01,16,03,49,6.40
2010,01,16,03,50,4.80
2010,01,16,03,51,3.20
2010,01,16,03,52,4.80
2010,01,16,03,53,4.80
2010,01,16,03,54,6.40
2010,01,16,03,55,4.80
2010,01,16,03,56,4.80
2010,01,16,03,57,4.80
2010,01,16,03,58,6.40
2010,01,16,03,59,6.40
2010,01,16,04,00,6.40
2010,01,16,04,01,4.80
2010,01,16,04,02,6.40
2010,01,16,04,03,6.40
2010,01,16,04,04,6.40
2010,01,16,04,05,6.40
2010,01,16,04,06,6.40
2010,01,16,04,07,6.40
2010,01,16,04,08,6.40
2010,01,16,04,09,6.40
2010,01,16,04,10,6.40
2010,01,16,04,11,8.10
2010,01,16,04,12,8.10
2010,01,16,04,13,8.10
2010,01,16,04,14,8.10
2010,01,16,04,15,6.40
2010,01,16,04,16,8.10
2010,01,16,04,17,6.40
2010,01,16,04,18,6.40
2010,01,16,04,19,8.10
2010,01,16,04,20,9.60
2010,01,16,04,21,9.60
2010,01,16,04,22,6.40
2010,01,16,04,23,8.10
2010,01,16,04,24,9.60
2010,01,16,04,25,9.60
2010,01,16,04,26,9.60
2010,01,16,04,27,9.60
2010,01,16,04,28,11.30
2010,01,16,04,29,9.60
2010,01,16,04,30,11.30
2010,01,16,04,31,9.60
2010,01,16,04,32,9.60
2010,01,16,04,33,8.10
2010,01,16,04,34,8.10
2010,01,16,04,35,8.10
2010,01,16,04,36,4.80
2010,01,16,04,37,6.40
2010,01,16,04,38,6.40
2010,01,16,04,39,8.10
2010,01,16,04,40,8.10
2010,01,16,04,41,9.60
2010,01,16,04,42,8.10
2010,01,16,04,43,8.10
2010,01,16,04,44,8.10
2010,01,16,04,45,8.10
2010,01,16,04,46,4.80
2010,01,16,04,47,6.40
2010,01,16,04,48,6.40
2010,01,16,04,49,8.10
2010,01,16,04,50,8.10
2010,01,16,04,51,9.60
2010,01,16,04,52,8.10
2010,01,16,04,53,9.60
2010,01,16,04,54,9.60
2010,01,16,04,55,9.60
2010,01,16,04,56,9.60
2010,01,16,04,57,9.60
2010,01,16,04,58,9.60
2010,01,16,04,59,8.10
2010,01,16,05,00,9.60
2010,01,16,05,01,9.60
2010,01,16,05,02,9.60
2010,01,16,05,03,6.40
2010,01,16,05,04,9.60
2010,01,16,05,05,8.10
2010,01,16,05,06,8.10
2010,01,16,05,07,6.40
2010,01,16,05,08,6.40
2010,01,16,05,09,8.10
2010,01,16,05,10,8.10
2010,01,16,05,11,9.60
2010,01,16,05,12,8.10
2010,01,16,05,13,8.10
2010,01,16,05,14,8.10
2010,01,16,05,15,6.40
2010,01,16,05,16,8.10
2010,01,16,05,17,8.10
2010,01,16,05,18,9.60
2010,01,16,05,19,8.10
2010,01,16,05,20,8.10
2010,01,16,05,21,9.60
2010,01,16,05,22,9.60
2010,01,16,05,23,9.60
2010,01,16,05,24,6.40
2010,01,16,05,25,8.10
2010,01,16,05,26,8.10
2010,01,16,05,27,8.10
2010,01,16,05,28,9.60
2010,01,16,05,29,9.60
2010,01,16,05,30,8.10
2010,01,16,05,31,9.60
2010,01,16,05,32,9.60
2010,01,16,05,33,8.10
2010,01,16,05,34,9.60
2010,01,16,05,35,8.10
2010,01,16,05,36,8.10
2010,01,16,05,37,8.10
2010,01,16,05,38,6.40
2010,01,16,05,39,6.40
2010,01,16,05,40,4.80
2010,01,16,05,41,8.10
2010,01,16,05,42,4.80
2010,01,16,05,43,8.10
2010,01,16,05,44,8.10
2010,01,16,05,45,8.10
2010,01,16,05,46,8.10
2010,01,16,05,47,8.10
2010,01,16,05,48,8.10
2010,01,16,05,49,4.80
2010,01,16,05,50,8.10
2010,01,16,05,51,6.40
2010,01,16,05,52,6.40
2010,01,16,05,53,8.10
2010,01,16,05,54,8.10
2010,01,16,05,55,4.80
2010,01,16,05,56,8.10
2010,01,16,05,57,8.10
2010,01,16,05,58,8.10
2010,01,16,05,59,8.10
2010,01,16,06,00,8.10
2010,01,16,06,01,6.40
2010,01,16,06,02,8.10
2010,01,16,06,03,6.40
2010,01,16,06,04,6.40
2010,01,16,06,05,8.10
2010,01,16,06,06,8.10
2010,01,16,06,07,8.10
2010,01,16,06,08,8.10
2010,01,16,06,09,6.40
2010,01,16,06,10,6.40
2010,01,16,06,11,8.10
2010,01,16,06,12,8.10
2010,01,16,06,13,8.10
2010,01,16,06,14,6.40
2010,01,16,06,15,6.40
2010,01,16,06,16,3.20
2010,01,16,06,17,4.80
2010,01,16,06,18,6.40
2010,01,16,06,19,6.40
2010,01,16,06,20,8.10
2010,01,16,06,21,8.10
2010,01,16,06,22,8.10
2010,01,16,06,23,8.10
2010,01,16,06,24,6.40
2010,01,16,06,25,6.40
2010,01,16,06,26,3.20
2010,01,16,06,27,4.80
2010,01,16,06,28,6.40
2010,01,16,06,29,8.10
2010,01,16,06,30,8.10
2010,01,16,06,31,6.40
2010,01,16,06,32,8.10
2010,01,16,06,33,8.10
2010,01,16,06,34,8.10
2010,01,16,06,35,6.40
2010,01,16,06,36,6.40
2010,01,16,06,37,4.80
2010,01,16,06,38,4.80
2010,01,16,06,39,4.80
2010,01,16,06,40,4.80
2010,01,16,06,41,4.80
2010,01,16,06,42,6.40
2010,01,16,06,43,4.80
2010,01,16,06,44,4.80
2010,01,16,06,45,6.40
2010,01,16,06,46,6.40
2010,01,16,06,47,6.40
2010,01,16,06,48,6.40
2010,01,16,06,49,6.40
2010,01,16,06,50,6.40
2010,01,16,06,51,4.80
2010,01,16,06,52,6.40
2010,01,16,06,53,6.40
2010,01,16,06,54,4.80
2010,01,16,06,55,4.80
2010,01,16,06,56,6.40
2010,01,16,06,57,6.40
2010,01,16,06,58,6.40
2010,01,16,06,59,4.80
2010,01,16,07,00,4.80
2010,01,16,07,01,4.80
2010,01,16,07,02,4.80
2010,01,16,07,03,3.20
2010,01,16,07,04,1.60
2010,01,16,07,05,1.60
2010,01,16,07,06,0.00
2010,01,16,07,07,0.00
2010,01,16,07,08,0.00
2010,01,16,07,09,1.60
2010,01,16,07,10,3.20
2010,01,16,07,11,3.20
2010,01,16,07,12,3.20
2010,01,16,07,13,4.80
2010,01,16,07,14,4.80
2010,01,16,07,15,3.20
2010,01,16,07,16,3.20
2010,01,16,07,17,4.80
2010,01,16,07,18,1.60
2010,01,16,07,19,0.00
2010,01,16,07,20,0.00
2010,01,16,07,21,0.00
2010,01,16,07,22,0.00
2010,01,16,07,23,0.00
2010,01,16,07,24,1.60
2010,01,16,07,25,1.60
2010,01,16,07,26,3.20
2010,01,16,07,27,1.60
2010,01,16,07,28,0.00
2010,01,16,07,29,3.20
2010,01,16,07,30,3.20
2010,01,16,07,31,4.80
2010,01,16,07,32,4.80
2010,01,16,07,33,6.40
2010,01,16,07,34,6.40
2010,01,16,07,35,6.40
2010,01,16,07,36,6.40
2010,01,16,07,37,4.80
2010,01,16,07,38,4.80
2010,01,16,07,39,6.40
2010,01,16,07,40,4.80
2010,01,16,07,41,4.80
2010,01,16,07,42,4.80
2010,01,16,07,43,3.20
2010,01,16,07,44,4.80
2010,01,16,07,45,3.20
2010,01,16,07,46,4.80
2010,01,16,07,47,4.80
2010,01,16,07,48,4.80
2010,01,16,07,49,6.40
2010,01,16,07,50,4.80
2010,01,16,07,51,3.20
2010,01,16,07,52,4.80
2010,01,16,07,53,4.80
2010,01,16,07,54,6.40
2010,01,16,07,55,4.80
2010,01,16,07,56,4.80
2010,01,16,07,57,3.20
2010,01,16,07,58,4.80
2010,01,16,07,59,3.20
2010,01,16,08,00,3.20
2010,01,16,08,01,1.60
2010,01,16,08,02,1.60
2010,01,16,08,03,0.00
2010,01,16,08,04,1.60
2010,01,16,08,05,3.20
2010,01,16,08,06,4.80
2010,01,16,08,07,4.80
2010,01,16,08,08,3.20
2010,01,16,08,09,3.20
2010,01,16,08,10,3.20
2010,01,16,08,11,3.20
2010,01,16,08,12,4.80
2010,01,16,08,13,3.20
2010,01,16,08,14,6.40
2010,01,16,08,15,6.40
2010,01,16,08,16,6.40
2010,01,16,08,17,6.40
2010,01,16,08,18,4.80
2010,01,16,08,19,6.40
2010,01,16,08,20,6.40
2010,01,16,08,21,6.40
2010,01,16,08,22,6.40
2010,01,16,08,23,6.40
2010,01,16,08,24,9.60
2010,01,16,08,25,8.10
2010,01,16,08,26,9.60
2010,01,16,08,27,14.50
2010,01,16,08,28,16.10
2010,01,16,08,29,16.10
2010,01,16,08,30,16.10
2010,01,16,08,31,11.30
2010,01,16,08,32,14.50
2010,01,16,08,33,12.90
2010,01,16,08,34,9.60
2010,01,16,08,35,16.10
2010,01,16,08,36,12.90
2010,01,16,08,37,9.60
2010,01,16,08,38,11.30
2010,01,16,08,39,12.90
2010,01,16,08,40,9.60
2010,01,16,08,41,11.30
2010,01,16,08,42,11.30
2010,01,16,08,43,14.50
2010,01,16,08,44,16.10
2010,01,16,08,45,14.50
2010,01,16,08,46,14.50
2010,01,16,08,47,14.50
2010,01,16,08,48,14.50
2010,01,16,08,49,11.30
2010,01,16,08,50,11.30
2010,01,16,08,51,16.10
2010,01,16,08,52,11.30
2010,01,16,08,53,14.50
2010,01,16,08,54,11.30
2010,01,16,08,55,9.60
2010,01,16,08,56,9.60
2010,01,16,08,57,9.60
2010,01,16,08,58,9.60
2010,01,16,08,59,8.10
2010,01,16,09,00,8.10
2010,01,16,09,01,9.60
2010,01,16,09,02,8.10
2010,01,16,09,03,11.30
2010,01,16,09,04,9.60
2010,01,16,09,05,11.30
2010,01,16,09,06,11.30
2010,01,16,09,07,9.60
2010,01,16,09,08,9.60
2010,01,16,09,09,8.10
2010,01,16,09,10,8.10
2010,01,16,09,11,6.40
2010,01,16,09,12,6.40
2010,01,16,09,13,8.10
2010,01,16,09,14,8.10
2010,01,16,09,15,6.40
2010,01,16,09,16,8.10
2010,01,16,09,17,8.10
2010,01,16,09,18,8.10
2010,01,16,09,19,8.10
2010,01,16,09,20,8.10
2010,01,16,09,21,8.10
2010,01,16,09,22,6.40
2010,01,16,09,23,6.40
2010,01,16,09,24,4.80
2010,01,16,09,25,4.80
2010,01,16,09,26,3.20
2010,01,16,09,27,1.60
2010,01,16,09,28,3.20
2010,01,16,09,29,3.20
2010,01,16,09,30,3.20
2010,01,16,09,31,3.20
2010,01,16,09,32,3.20
2010,01,16,09,33,3.20
2010,01,16,09,34,3.20
2010,01,16,09,35,3.20
2010,01,16,09,36,3.20
2010,01,16,09,37,1.60
2010,01,16,09,38,1.60
2010,01,16,09,39,3.20
2010,01,16,09,40,4.80
2010,01,16,09,41,4.80
2010,01,16,09,42,3.20
2010,01,16,09,43,6.40
2010,01,16,09,44,6.40
2010,01,16,09,45,6.40
2010,01,16,09,46,4.80
2010,01,16,09,47,6.40
2010,01,16,09,48,8.10
2010,01,16,09,49,6.40
2010,01,16,09,50,9.60
2010,01,16,09,51,6.40
2010,01,16,09,52,6.40
2010,01,16,09,53,4.80
2010,01,16,09,54,6.40
2010,01,16,09,55,6.40
2010,01,16,09,56,8.10
2010,01,16,09,57,8.10
2010,01,16,09,58,8.10
2010,01,16,09,59,9.60
2010,01,16,10,00,8.10
2010,01,16,10,01,9.60
2010,01,16,10,02,11.30
2010,01,16,10,03,11.30
2010,01,16,10,04,9.60
2010,01,16,10,05,16.10
2010,01,16,10,06,14.50
2010,01,16,10,07,12.90
2010,01,16,10,08,14.50
2010,01,16,10,09,8.10
2010,01,16,10,10,16.10
2010,01,16,10,11,16.10
2010,01,16,10,12,14.50
2010,01,16,10,13,16.10
2010,01,16,10,14,12.90
2010,01,16,10,15,16.10
2010,01,16,10,16,12.90
2010,01,16,10,17,11.30
2010,01,16,10,18,11.30
2010,01,16,10,19,9.60
2010,01,16,10,20,11.30
2010,01,16,10,21,14.50
2010,01,16,10,22,6.40
2010,01,16,10,23,6.40
2010,01,16,10,24,8.10
2010,01,16,10,25,6.40
2010,01,16,10,26,8.10
2010,01,16,10,27,6.40
2010,01,16,10,28,6.40
2010,01,16,10,29,6.40
2010,01,16,10,30,8.10
2010,01,16,10,31,6.40
2010,01,16,10,32,6.40
2010,01,16,10,33,6.40
2010,01,16,10,34,4.80
2010,01,16,10,35,4.80
2010,01,16,10,36,9.60
2010,01,16,10,37,8.10
2010,01,16,10,38,8.10
2010,01,16,10,39,8.10
2010,01,16,10,40,8.10
2010,01,16,10,41,8.10
2010,01,16,10,42,8.10
2010,01,16,10,43,6.40
2010,01,16,10,44,6.40
2010,01,16,10,45,9.60
2010,01,16,10,46,9.60
2010,01,16,10,47,9.60
2010,01,16,10,48,9.60
2010,01,16,10,49,11.30
2010,01,16,10,50,14.50
2010,01,16,10,51,16.10
2010,01,16,10,52,9.60
2010,01,16,10,53,11.30
2010,01,16,10,54,9.60
2010,01,16,10,55,9.60
2010,01,16,10,56,9.60
2010,01,16,10,57,11.30
2010,01,16,10,58,9.60
2010,01,16,10,59,9.60
2010,01,16,11,00,11.30
2010,01,16,11,01,11.30
2010,01,16,11,02,9.60
2010,01,16,11,03,8.10
2010,01,16,11,04,8.10
2010,01,16,11,05,6.40
2010,01,16,11,06,6.40
2010,01,16,11,07,6.40
2010,01,16,11,08,8.10
2010,01,16,11,09,8.10
2010,01,16,11,10,8.10
2010,01,16,11,11,6.40
2010,01,16,11,12,8.10
2010,01,16,11,13,6.40
2010,01,16,11,14,8.10
2010,01,16,11,15,9.60
2010,01,16,11,16,11.30
2010,01,16,11,17,9.60
2010,01,16,11,18,6.40
2010,01,16,11,19,9.60
2010,01,16,11,20,8.10
2010,01,16,11,21,6.40
2010,01,16,11,22,8.10
2010,01,16,11,23,8.10
2010,01,16,11,24,8.10
2010,01,16,11,25,6.40
2010,01,16,11,26,9.60
2010,01,16,11,27,8.10
2010,01,16,11,28,8.10
2010,01,16,11,29,9.60
2010,01,16,11,30,8.10
2010,01,16,11,31,6.40
2010,01,16,11,32,4.80
2010,01,16,11,33,8.10
2010,01,16,11,34,6.40
2010,01,16,11,35,8.10
2010,01,16,11,36,8.10
2010,01,16,11,37,8.10
2010,01,16,11,38,8.10
2010,01,16,11,39,8.10
2010,01,16,11,40,6.40
2010,01,16,11,41,8.10
2010,01,16,11,42,8.10
2010,01,16,11,43,8.10
2010,01,16,11,44,6.40
2010,01,16,11,45,9.60
2010,01,16,11,46,9.60
2010,01,16,11,47,11.30
2010,01,16,11,48,9.60
2010,01,16,11,49,9.60
2010,01,16,11,50,8.10
2010,01,16,11,51,9.60
2010,01,16,11,52,11.30
2010,01,16,11,53,6.40
2010,01,16,11,54,6.40
2010,01,16,11,55,8.10
2010,01,16,11,56,9.60
2010,01,16,11,57,8.10
2010,01,16,11,58,9.60
2010,01,16,11,59,9.60
2010,01,16,12,00,11.30
2010,01,16,12,01,11.30
2010,01,16,12,02,8.10
2010,01,16,12,03,11.30
2010,01,16,12,04,11.30
2010,01,16,12,05,8.10
2010,01,16,12,06,8.10
2010,01,16,12,07,8.10
2010,01,16,12,08,9.60
2010,01,16,12,09,11.30
2010,01,16,12,10,11.30
2010,01,16,12,11,9.60
2010,01,16,12,12,11.30
2010,01,16,12,13,16.10
2010,01,16,12,14,12.90
2010,01,16,12,15,11.30
2010,01,16,12,16,11.30
2010,01,16,12,17,9.60
2010,01,16,12,18,14.50
2010,01,16,12,19,12.90
2010,01,16,12,20,11.30
2010,01,16,12,21,11.30
2010,01,16,12,22,9.60
2010,01,16,12,23,8.10
2010,01,16,12,24,11.30
2010,01,16,12,25,11.30
2010,01,16,12,26,11.30
2010,01,16,12,27,8.10
2010,01,16,12,28,9.60
2010,01,16,12,29,8.10
2010,01,16,12,30,9.60
2010,01,16,12,31,17.70
2010,01,16,12,32,16.10
2010,01,16,12,33,14.50
2010,01,16,12,34,14.50
2010,01,16,12,35,17.70
2010,01,16,12,36,16.10
2010,01,16,12,37,11.30
2010,01,16,12,38,11.30
2010,01,16,12,39,8.10
2010,01,16,12,40,11.30
2010,01,16,12,41,11.30
2010,01,16,12,42,11.30
2010,01,16,12,43,11.30
2010,01,16,12,44,11.30
2010,01,16,12,45,11.30
2010,01,16,12,46,11.30
2010,01,16,12,47,11.30
2010,01,16,12,48,9.60
2010,01,16,12,49,11.30
2010,01,16,12,50,11.30
2010,01,16,12,51,9.60
2010,01,16,12,52,8.10
2010,01,16,12,53,11.30
2010,01,16,12,54,16.10
2010,01,16,12,55,16.10
2010,01,16,12,56,16.10
2010,01,16,12,57,17.70
2010,01,16,12,58,14.50
2010,01,16,12,59,14.50
2010,01,16,13,00,9.60
2010,01,16,13,01,9.60
2010,01,16,13,02,16.10
2010,01,16,13,03,9.60
2010,01,16,13,04,17.70
2010,01,16,13,05,14.50
2010,01,16,13,06,16.10
2010,01,16,13,07,17.70
2010,01,16,13,08,19.30
2010,01,16,13,09,16.10
2010,01,16,13,10,12.90
2010,01,16,13,11,17.70
2010,01,16,13,12,16.10
2010,01,16,13,13,14.50
2010,01,16,13,14,14.50
2010,01,16,13,15,16.10
2010,01,16,13,16,16.10
2010,01,16,13,17,12.90
2010,01,16,13,18,17.70
2010,01,16,13,19,14.50
2010,01,16,13,20,16.10
2010,01,16,13,21,19.30
2010,01,16,13,22,12.90
2010,01,16,13,23,16.10
2010,01,16,13,24,20.90
2010,01,16,13,25,19.30
2010,01,16,13,26,17.70
2010,01,16,13,27,14.50
2010,01,16,13,28,17.70
2010,01,16,13,29,19.30
2010,01,16,13,30,14.50
2010,01,16,13,31,14.50
2010,01,16,13,32,16.10
2010,01,16,13,33,12.90
2010,01,16,13,34,14.50
2010,01,16,13,35,16.10
2010,01,16,13,36,16.10
2010,01,16,13,37,16.10
2010,01,16,13,38,14.50
2010,01,16,13,39,16.10
2010,01,16,13,40,11.30
2010,01,16,13,41,17.70
2010,01,16,13,42,14.50
2010,01,16,13,43,16.10
2010,01,16,13,44,16.10
2010,01,16,13,45,11.30
2010,01,16,13,46,14.50
2010,01,16,13,47,11.30
2010,01,16,13,48,11.30
2010,01,16,13,49,12.90
2010,01,16,13,50,16.10
2010,01,16,13,51,17.70
2010,01,16,13,52,16.10
2010,01,16,13,53,19.30
2010,01,16,13,54,17.70
2010,01,16,13,55,19.30
2010,01,16,13,56,20.90
2010,01,16,13,57,17.70
2010,01,16,13,58,16.10
2010,01,16,13,59,14.50
2010,01,16,14,00,16.10
2010,01,16,14,01,11.30
2010,01,16,14,02,17.70
2010,01,16,14,03,16.10
2010,01,16,14,04,17.70
2010,01,16,14,05,17.70
2010,01,16,14,06,16.10
2010,01,16,14,07,11.30
2010,01,16,14,08,14.50
2010,01,16,14,09,11.30
2010,01,16,14,10,11.30
2010,01,16,14,11,14.50
2010,01,16,14,12,19.30
2010,01,16,14,13,19.30
2010,01,16,14,14,14.50
2010,01,16,14,15,11.30
2010,01,16,14,16,8.10
2010,01,16,14,17,14.50
2010,01,16,14,18,11.30
2010,01,16,14,19,16.10
2010,01,16,14,20,11.30
2010,01,16,14,21,11.30
2010,01,16,14,22,11.30
2010,01,16,14,23,11.30
2010,01,16,14,24,12.90
2010,01,16,14,25,9.60
2010,01,16,14,26,19.30
2010,01,16,14,27,17.70
2010,01,16,14,28,14.50
2010,01,16,14,29,17.70
2010,01,16,14,30,19.30
2010,01,16,14,31,17.70
2010,01,16,14,32,11.30
2010,01,16,14,33,14.50
2010,01,16,14,34,17.70
2010,01,16,14,35,19.30
2010,01,16,14,36,17.70
2010,01,16,14,37,17.70
2010,01,16,14,38,19.30
2010,01,16,14,39,17.70
2010,01,16,14,40,17.70
2010,01,16,14,41,16.10
2010,01,16,14,42,19.30
2010,01,16,14,43,24.20
2010,01,16,14,44,17.70
2010,01,16,14,45,14.50
2010,01,16,14,46,16.10
2010,01,16,14,47,11.30
2010,01,16,14,48,9.60
2010,01,16,14,49,14.50
2010,01,16,14,50,14.50
2010,01,16,14,51,11.30
2010,01,16,14,52,8.10
2010,01,16,14,53,9.60
2010,01,16,14,54,8.10
2010,01,16,14,55,9.60
2010,01,16,14,56,14.50
2010,01,16,14,57,12.90
2010,01,16,14,58,17.70
2010,01,16,14,59,14.50
2010,01,16,15,00,24.20
2010,01,16,15,01,30.60
2010,01,16,15,02,22.50
2010,01,16,15,03,20.90
2010,01,16,15,04,17.70
2010,01,16,15,05,24.20
2010,01,16,15,06,20.90
2010,01,16,15,07,19.30
2010,01,16,15,08,17.70
2010,01,16,15,09,20.90
2010,01,16,15,10,19.30
2010,01,16,15,11,22.50
2010,01,16,15,12,17.70
2010,01,16,15,13,11.30
2010,01,16,15,14,16.10
2010,01,16,15,15,16.10
2010,01,16,15,16,16.10
2010,01,16,15,17,19.30
2010,01,16,15,18,19.30
2010,01,16,15,19,17.70
2010,01,16,15,20,9.60
2010,01,16,15,21,12.90
2010,01,16,15,22,16.10
2010,01,16,15,23,11.30
2010,01,16,15,24,17.70
2010,01,16,15,25,20.90
2010,01,16,15,26,17.70
2010,01,16,15,27,14.50
2010,01,16,15,28,20.90
2010,01,16,15,29,16.10
2010,01,16,15,30,16.10
2010,01,16,15,31,19.30
2010,01,16,15,32,22.50
2010,01,16,15,33,19.30
2010,01,16,15,34,20.90
2010,01,16,15,35,20.90
2010,01,16,15,36,20.90
2010,01,16,15,37,19.30
2010,01,16,15,38,16.10
2010,01,16,15,39,19.30
2010,01,16,15,40,24.20
2010,01,16,15,41,19.30
2010,01,16,15,42,20.90
2010,01,16,15,43,19.30
2010,01,16,15,44,17.70
2010,01,16,15,45,27.40
2010,01,16,15,46,27.40
2010,01,16,15,47,25.70
2010,01,16,15,48,30.60
2010,01,16,15,49,25.70
2010,01,16,15,50,20.90
2010,01,16,15,51,24.20
2010,01,16,15,52,20.90
2010,01,16,15,53,20.90
2010,01,16,15,54,20.90
2010,01,16,15,55,27.40
2010,01,16,15,56,20.90
2010,01,16,15,57,22.50
2010,01,16,15,58,27.40
2010,01,16,15,59,27.40
2010,01,16,16,00,19.30
2010,01,16,16,01,24.20
2010,01,16,16,02,20.90
2010,01,16,16,03,19.30
2010,01,16,16,04,17.70
2010,01,16,16,05,17.70
2010,01,16,16,06,22.50
2010,01,16,16,07,27.40
2010,01,16,16,08,20.90
2010,01,16,16,09,25.70
2010,01,16,16,10,22.50
2010,01,16,16,11,20.90
2010,01,16,16,12,17.70
2010,01,16,16,13,25.70
2010,01,16,16,14,25.70
2010,01,16,16,15,22.50
2010,01,16,16,16,20.90
2010,01,16,16,17,24.20
2010,01,16,16,18,24.20
2010,01,16,16,19,25.70
2010,01,16,16,20,17.70
2010,01,16,16,21,22.50
2010,01,16,16,22,27.40
2010,01,16,16,23,25.70
2010,01,16,16,24,22.50
2010,01,16,16,25,25.70
2010,01,16,16,26,25.70
2010,01,16,16,27,22.50
2010,01,16,16,28,22.50
2010,01,16,16,29,30.60
2010,01,16,16,30,25.70
2010,01,16,16,31,25.70
2010,01,16,16,32,20.90
2010,01,16,16,33,22.50
2010,01,16,16,34,27.40
2010,01,16,16,35,22.50
2010,01,16,16,36,29.00
2010,01,16,16,37,20.90
2010,01,16,16,38,29.00
2010,01,16,16,39,25.70
2010,01,16,16,40,24.20
2010,01,16,16,41,25.70
2010,01,16,16,42,24.20
2010,01,16,16,43,20.90
2010,01,16,16,44,22.50
2010,01,16,16,45,20.90
2010,01,16,16,46,22.50
2010,01,16,16,47,29.00
2010,01,16,16,48,22.50
2010,01,16,16,49,30.60
2010,01,16,16,50,25.70
2010,01,16,16,51,22.50
2010,01,16,16,52,24.20
2010,01,16,16,53,22.50
2010,01,16,16,54,24.20
2010,01,16,16,55,20.90
2010,01,16,16,56,25.70
2010,01,16,16,57,17.70
2010,01,16,16,58,24.20
2010,01,16,16,59,19.30
2010,01,16,17,00,20.90
2010,01,16,17,01,25.70
2010,01,16,17,02,29.00
2010,01,16,17,03,25.70
2010,01,16,17,04,25.70
2010,01,16,17,05,27.40
2010,01,16,17,06,22.50
2010,01,16,17,07,27.40
2010,01,16,17,08,20.90
2010,01,16,17,09,29.00
2010,01,16,17,10,22.50
2010,01,16,17,11,25.70
2010,01,16,17,12,22.50
2010,01,16,17,13,25.70
2010,01,16,17,14,27.40
2010,01,16,17,15,22.50
2010,01,16,17,16,25.70
2010,01,16,17,17,24.20
2010,01,16,17,18,20.90
2010,01,16,17,19,22.50
2010,01,16,17,20,22.50
2010,01,16,17,21,19.30
2010,01,16,17,22,27.40
2010,01,16,17,23,25.70
2010,01,16,17,24,22.50
2010,01,16,17,25,20.90
2010,01,16,17,26,25.70
2010,01,16,17,27,29.00
2010,01,16,17,28,27.40
2010,01,16,17,29,30.60
2010,01,16,17,30,29.00
2010,01,16,17,31,29.00
2010,01,16,17,32,25.70
2010,01,16,17,33,24.20
2010,01,16,17,34,30.60
2010,01,16,17,35,25.70
2010,01,16,17,36,20.90
2010,01,16,17,37,24.20
2010,01,16,17,38,20.90
2010,01,16,17,39,17.70
2010,01,16,17,40,20.90
2010,01,16,17,41,20.90
2010,01,16,17,42,24.20
2010,01,16,17,43,22.50
2010,01,16,17,44,20.90
2010,01,16,17,45,24.20
2010,01,16,17,46,24.20
2010,01,16,17,47,27.40
2010,01,16,17,48,24.20